Regional Weather Roundup
Issued by NWS Sioux Falls, SD

Home | Current Version | Previous Version | Graphics & Text | Print | Product List | Glossary On
Versions: 1 2 3 4 5 6 7 8 9 10 11 12 13 14 15 16 17 18 19 20 21 22 23 24 25 26 27 28 29 30 31 32 33 34 35 36 37 38 39 40 41 42 43 44 45 46 47 48 49 50
414
ASUS43 KFSD 060002
RWRFSD

WEATHER ROUNDUP FOR SE SOUTH DAKOTA/SW MINNESOTA/NW IOWA
NATIONAL WEATHER SERVICE SIOUX FALLS SD
700 PM CDT THU MAY 05 2016

NOTE: "FAIR" INDICATES FEW OR NO CLOUDS BELOW 12,000 FEET WITH NO
SIGNIFICANT WEATHER AND OR OBSTRUCTIONS TO VISIBILITY.


SDZ038>040-050-052>070-060100-
SOUTHEAST SOUTH DAKOTA

CITY           SKY/WX    TMP DP  RH WIND       PRES   REMARKS
BROOKINGS      SUNNY     77  46  33 S10       29.91F
CHAMBERLAIN    NOT AVBL
HURON          SUNNY     81  40  23 S13       29.86F
6HR MIN TEMP:  79; 6HR MAX TEMP:  84;

MADISON        FAIR      77  41  27 SW16      29.92F
MITCHELL       SUNNY     81  42  25 S10       29.89F
6HR MIN TEMP:  77; 6HR MAX TEMP:  84;

SIOUX FALLS    MOSUNNY   75  46  35 S8        29.93F
6HR MIN TEMP:  71; 6HR MAX TEMP:  76;

WINNER         LGT RAIN  83  48  29 S16       29.86F
YANKTON        SUNNY     81  39  22 S12       29.91S
$$

MNZ071-072-080-081-089-090-097-098-060100-
SOUTHWEST MINNESOTA

CITY           SKY/WX    TMP DP  RH WIND       PRES   REMARKS
FAIRMONT       SUNNY     75  36  23 SW9       29.94F
JACKSON        SUNNY     77  32  19 SW9       29.96F
LUVERNE        SUNNY     75  36  23 SW10      29.94F
MARSHALL       SUNNY     80  45  28 SW13      29.90F
6HR MIN TEMP:  76; 6HR MAX TEMP:  82;

MONTEVIDEO     SUNNY     82  43  24 W9        29.89S
PIPESTONE      SUNNY     75  41  29 SW10      29.94F
REDWOOD FALLS  SUNNY     80  41  24 SW9       29.89F
TRACY          SUNNY     79  43  28 SW10      29.92F
WINDOM         SUNNY     77  37  24 SW8       29.94F
WORTHINGTON    SUNNY     77  40  26 SW12      29.96F
$$

IAZ001>003-012>014-020>022-031-032-NEZ013-014-SDZ071-060100-
NORTHWEST IOWA

CITY           SKY/WX    TMP DP  RH WIND       PRES   REMARKS
DENISON        SUNNY     75  39  27 SW8       29.97F
ESTHERVILLE    SUNNY     75  40  28 W9        29.95F
SIOUX CITY     SUNNY     77  46  33 SE12      29.95F
6HR MIN TEMP:  74; 6HR MAX TEMP:  78;

SPENCER        SUNNY     76  36  23 SW10      29.96F
6HR MIN TEMP:  69; 6HR MAX TEMP:  78;

STORM LAKE     SUNNY     75  36  23 W10       29.99S
$$

ABBREVIATIONS USED IN REMARKS
   TC - TEMPERATURE IN CELSIUS
  WCI - WIND CHILL INDEX
   HX - HEAT INDEX
  VSB - VISIBILITY





USA.gov is the U.S. government's official web portal to all federal, state and local government web resources and services.